WAT1711 LSGG-LHBP

Flight info

Callsign WAT1711
Flight time 1h 25m
Altitude 38000
Route SOSAL N871 KORED DCT BERSU DCT DITON DCT DEGES DCT GAMSA/N0434F370 DCT UMVEG DCT GOTAR DCT SIRDU DCT OGVUN DCT VAJDI
Aircraft A320/M-SDE3FGHIRWY/LB1

Departure

Time 2026-02-18 06:35
Airport Geneva International Airport (LSGG)

Arrival

Time 2026-02-18 08:00
Airport Budapest Liszt Ferenc International Airport (LHBP)
Time Latitude Longitude Altitude Speed Heading
2026-02-18 05:40 46.23157 6.10740 1386 ft 0 kts 132°
2026-02-18 06:24 46.23160 6.10735 1383 ft 2 kts 132°
2026-02-18 06:25 46.23171 6.10718 1385 ft 3 kts 126°
2026-02-18 06:25 46.23179 6.10695 1383 ft 3 kts 86°
2026-02-18 06:25 46.23173 6.10670 1384 ft 3 kts 50°
2026-02-18 06:25 46.23166 6.10659 1384 ft 1 kts 46°
2026-02-18 06:26 46.23165 6.10657 1388 ft 0 kts 46°
2026-02-18 06:29 46.23167 6.10659 1385 ft 3 kts 46°
2026-02-18 06:30 46.23221 6.10739 1386 ft 15 kts 44°
2026-02-18 06:30 46.23320 6.10801 1381 ft 16 kts
2026-02-18 06:30 46.23409 6.10722 1379 ft 14 kts 324°
2026-02-18 06:31 46.23597 6.10922 1378 ft 20 kts 45°
2026-02-18 06:31 46.23702 6.11074 1378 ft 21 kts 45°
2026-02-18 06:31 46.23805 6.11227 1376 ft 22 kts 46°
2026-02-18 06:31 46.23913 6.11387 1375 ft 23 kts 46°
2026-02-18 06:32 46.24031 6.11560 1373 ft 26 kts 45°
2026-02-18 06:32 46.24161 6.11750 1367 ft 28 kts 45°
2026-02-18 06:32 46.24296 6.11949 1367 ft 28 kts 45°
2026-02-18 06:32 46.24431 6.12147 1367 ft 27 kts 45°
2026-02-18 06:33 46.24563 6.12342 1366 ft 28 kts 45°
2026-02-18 06:33 46.24701 6.12541 1359 ft 27 kts 45°
2026-02-18 06:33 46.24799 6.12671 1356 ft 13 kts 25°
2026-02-18 06:33 46.24890 6.12708 1355 ft 15 kts 13°
2026-02-18 06:34 46.24936 6.12724 1355 ft 0 kts 13°
2026-02-18 06:34 46.24954 6.12730 1356 ft 3 kts 11°
2026-02-18 06:35 46.24850 6.12430 1360 ft 61 kts 225°
2026-02-18 06:35 46.24382 6.11737 1370 ft 128 kts 225°
2026-02-18 06:35 46.23642 6.10639 1437 ft 174 kts 226°
2026-02-18 06:35 46.22767 6.09380 2071 ft 179 kts 225°
2026-02-18 06:36 46.21871 6.08121 2825 ft 181 kts 224°
2026-02-18 06:36 46.21074 6.06726 3553 ft 180 kts 246°
2026-02-18 06:36 46.20974 6.04943 4049 ft 186 kts 291°
2026-02-18 06:36 46.21811 6.03552 4512 ft 192 kts 337°
2026-02-18 06:37 46.23134 6.03377 5003 ft 197 kts 14°
2026-02-18 06:37 46.24419 6.04176 5444 ft 209 kts 29°
2026-02-18 06:37 46.25711 6.05124 6142 ft 206 kts 27°
2026-02-18 06:37 46.26988 6.06101 6771 ft 210 kts 38°
2026-02-18 06:38 46.28145 6.07524 7135 ft 230 kts 43°
2026-02-18 06:38 46.29391 6.09165 7457 ft 254 kts 43°
2026-02-18 06:38 46.30740 6.10976 7837 ft 275 kts 43°
2026-02-18 06:39 46.33611 6.14857 9308 ft 287 kts 42°
2026-02-18 06:39 46.35079 6.16835 10101 ft 291 kts 41°
2026-02-18 06:39 46.36613 6.18884 10494 ft 311 kts 40°
2026-02-18 06:39 46.38276 6.21051 10807 ft 331 kts 39°
2026-02-18 06:40 46.40039 6.23336 11450 ft 338 kts 39°
2026-02-18 06:40 46.41773 6.25595 12160 ft 342 kts 38°
2026-02-18 06:40 46.43543 6.27941 12871 ft 345 kts 38°
2026-02-18 06:40 46.45318 6.30313 13555 ft 349 kts 37°
2026-02-18 06:41 46.47111 6.32718 14224 ft 353 kts 37°
2026-02-18 06:41 46.48920 6.35148 14842 ft 355 kts 36°
2026-02-18 06:41 46.50750 6.37607 15430 ft 361 kts 36°
2026-02-18 06:41 46.52596 6.40094 16071 ft 364 kts 35°
2026-02-18 06:42 46.54324 6.42838 16686 ft 376 kts 47°
2026-02-18 06:42 46.55657 6.46186 17269 ft 390 kts 59°
2026-02-18 06:42 46.56469 6.50010 17813 ft 405 kts 73°
2026-02-18 06:43 46.56570 6.58426 18887 ft 424 kts 87°
2026-02-18 06:43 46.56462 6.62729 19439 ft 429 kts 87°
2026-02-18 06:43 46.56352 6.67085 19988 ft 432 kts 87°
2026-02-18 06:43 46.56244 6.71460 20505 ft 436 kts 86°
2026-02-18 06:44 46.56135 6.75875 21021 ft 440 kts 86°
2026-02-18 06:44 46.56076 6.80347 21506 ft 441 kts 81°
2026-02-18 06:44 46.56443 6.84738 22005 ft 436 kts 71°
2026-02-18 06:44 46.57285 6.88935 22478 ft 431 kts 60°
2026-02-18 06:45 46.58557 6.92848 22957 ft 425 kts 51°
2026-02-18 06:45 46.60203 6.96366 23449 ft 417 kts 41°
2026-02-18 06:45 46.62033 6.99647 23910 ft 419 kts 41°
2026-02-18 06:45 46.63858 7.02917 24321 ft 422 kts 41°
2026-02-18 06:46 46.65715 7.06248 24744 ft 425 kts 41°
2026-02-18 06:46 46.67578 7.09603 25147 ft 428 kts 41°
2026-02-18 06:46 46.69452 7.12995 25529 ft 431 kts 41°
2026-02-18 06:47 46.73221 7.19839 26311 ft 436 kts 41°
2026-02-18 06:47 46.75120 7.23295 26677 ft 439 kts 41°
2026-02-18 06:47 46.77042 7.26784 27069 ft 442 kts 41°
2026-02-18 06:47 46.78968 7.30279 27439 ft 443 kts 41°
2026-02-18 06:48 46.80901 7.33792 27770 ft 445 kts 41°
2026-02-18 06:48 46.82844 7.37326 28064 ft 448 kts 41°
2026-02-18 06:48 46.84796 7.40888 28374 ft 451 kts 41°
2026-02-18 06:48 46.86760 7.44491 28670 ft 453 kts 41°
2026-02-18 06:49 46.88722 7.48104 29002 ft 454 kts 41°
2026-02-18 06:49 46.90685 7.51725 29283 ft 455 kts 41°
2026-02-18 06:49 46.92660 7.55373 29539 ft 458 kts 41°
2026-02-18 06:49 46.94642 7.59032 29815 ft 460 kts 41°
2026-02-18 06:50 46.96637 7.62705 30077 ft 462 kts 41°
2026-02-18 06:50 46.98640 7.66392 30381 ft 463 kts 41°
2026-02-18 06:50 47.00646 7.70090 30599 ft 465 kts 41°
2026-02-18 06:51 47.04690 7.77588 31034 ft 471 kts 41°
2026-02-18 06:51 47.06717 7.81364 31233 ft 473 kts 41°
2026-02-18 06:51 47.08748 7.85153 31487 ft 474 kts 41°
2026-02-18 06:51 47.10781 7.88953 31799 ft 473 kts 41°
2026-02-18 06:52 47.12814 7.92751 32081 ft 474 kts 41°
2026-02-18 06:52 47.14704 7.96774 32358 ft 483 kts 47°
2026-02-18 06:52 47.16502 8.00961 32585 ft 484 kts 47°
2026-02-18 06:52 47.18290 8.05152 32874 ft 484 kts 46°
2026-02-18 06:53 47.20065 8.09333 33135 ft 484 kts 46°
2026-02-18 06:53 47.21247 8.12120 33291 ft 484 kts 47°
2026-02-18 06:53 47.23025 8.16320 33546 ft 485 kts 46°
2026-02-18 06:53 47.24810 8.20536 33769 ft 486 kts 46°
2026-02-18 06:54 47.26600 8.24767 34016 ft 486 kts 46°
2026-02-18 06:54 47.28378 8.29016 34263 ft 491 kts 49°
2026-02-18 06:54 47.29875 8.33588 34514 ft 503 kts 59°
2026-02-18 06:55 47.31600 8.43791 35061 ft 518 kts 71°
2026-02-18 06:55 47.32264 8.49022 35314 ft 517 kts 71°
2026-02-18 06:55 47.32930 8.54227 35544 ft 516 kts 71°
2026-02-18 06:55 47.33600 8.59421 35800 ft 515 kts 70°
2026-02-18 06:56 47.34267 8.64597 36025 ft 514 kts 70°
2026-02-18 06:56 47.34933 8.69765 36222 ft 514 kts 71°
2026-02-18 06:56 47.35597 8.74925 36423 ft 514 kts 71°
2026-02-18 06:56 47.36260 8.80117 36605 ft 514 kts 71°
2026-02-18 06:57 47.36912 8.85299 36841 ft 513 kts 71°
2026-02-18 06:57 47.37557 8.90464 37069 ft 511 kts 71°
2026-02-18 06:57 47.38199 8.95604 37271 ft 509 kts 70°
2026-02-18 06:57 47.38839 9.00724 37481 ft 507 kts 71°
2026-02-18 06:58 47.39477 9.05841 37691 ft 505 kts 71°
2026-02-18 06:58 47.40109 9.10926 37895 ft 504 kts 71°
2026-02-18 06:58 47.40739 9.16015 38010 ft 502 kts 71°
2026-02-18 06:59 47.41217 9.26398 38029 ft 512 kts 84°
2026-02-18 06:59 47.41116 9.36910 38027 ft 512 kts 83°
2026-02-18 07:00 47.41019 9.47414 38028 ft 511 kts 84°
2026-02-18 07:00 47.40916 9.57900 38027 ft 510 kts 83°
2026-02-18 07:01 47.40612 9.68324 38031 ft 516 kts 90°
2026-02-18 07:01 47.39782 9.78931 38035 ft 517 kts 90°
2026-02-18 07:02 47.38949 9.89401 38037 ft 516 kts 90°
2026-02-18 07:02 47.38102 9.99908 38028 ft 516 kts 90°
2026-02-18 07:03 47.36805 10.15727 38019 ft 517 kts 90°
2026-02-18 07:03 47.35937 10.26272 38018 ft 516 kts 90°
2026-02-18 07:04 47.35072 10.36729 38012 ft 517 kts 90°
2026-02-18 07:04 47.34191 10.47219 38001 ft 516 kts 91°
2026-02-18 07:05 47.33298 10.57707 37994 ft 517 kts 91°
2026-02-18 07:05 47.32383 10.68216 37990 ft 517 kts 91°
2026-02-18 07:06 47.31456 10.78743 37998 ft 517 kts 92°
2026-02-18 07:07 47.30058 10.94485 37999 ft 517 kts 91°
2026-02-18 07:07 47.29122 11.05008 38000 ft 518 kts 91°
2026-02-18 07:08 47.28171 11.15529 38016 ft 518 kts 91°
2026-02-18 07:08 47.27220 11.25992 38019 ft 520 kts 92°
2026-02-18 07:09 47.26230 11.36575 38031 ft 521 kts 92°
2026-02-18 07:09 47.25236 11.47129 38044 ft 521 kts 92°
2026-02-18 07:10 47.24249 11.57689 38045 ft 521 kts 92°
2026-02-18 07:10 47.23242 11.68239 38059 ft 520 kts 92°
2026-02-18 07:11 47.21704 11.84002 38047 ft 518 kts 92°
2026-02-18 07:11 47.21007 11.94478 38046 ft 513 kts 85°
2026-02-18 07:12 47.20702 12.04981 38023 ft 514 kts 86°
2026-02-18 07:12 47.20363 12.15473 38016 ft 513 kts 86°
2026-02-18 07:13 47.20014 12.25954 38021 ft 513 kts 86°
2026-02-18 07:13 47.19653 12.36455 38023 ft 514 kts 86°
2026-02-18 07:14 47.19280 12.46936 38020 ft 513 kts 86°
2026-02-18 07:15 47.18722 12.62572 38012 ft 513 kts 86°
2026-02-18 07:15 47.18335 12.73047 38028 ft 514 kts 86°
2026-02-18 07:16 47.17927 12.83561 38036 ft 515 kts 86°
2026-02-18 07:16 47.17520 12.94039 38027 ft 513 kts 87°
2026-02-18 07:17 47.17104 13.04515 38032 ft 514 kts 86°
2026-02-18 07:17 47.16671 13.14992 38040 ft 514 kts 87°
2026-02-18 07:18 47.16232 13.25476 38043 ft 514 kts 87°
2026-02-18 07:18 47.15787 13.35984 38050 ft 514 kts 87°
2026-02-18 07:19 47.15087 13.51711 38050 ft 514 kts 87°
2026-02-18 07:19 47.14609 13.62214 38045 ft 515 kts 87°
2026-02-18 07:20 47.14132 13.72669 38056 ft 513 kts 88°
2026-02-18 07:20 47.13657 13.83036 38039 ft 511 kts 88°
2026-02-18 07:21 47.13155 13.93458 38039 ft 512 kts 88°
2026-02-18 07:21 47.12654 14.03885 38044 ft 511 kts 88°
2026-02-18 07:22 47.12139 14.14298 38045 ft 511 kts 88°
2026-02-18 07:23 47.11345 14.29883 38046 ft 510 kts 88°
2026-02-18 07:23 47.10525 14.45456 38030 ft 509 kts 88°
2026-02-18 07:24 47.09973 14.55819 38029 ft 509 kts 88°
2026-02-18 07:24 47.09409 14.66176 38030 ft 509 kts 89°
2026-02-18 07:25 47.08835 14.76512 38022 ft 508 kts 89°
2026-02-18 07:25 47.08260 14.86841 38013 ft 507 kts 89°
2026-02-18 07:26 47.07676 14.97143 38022 ft 507 kts 89°
2026-02-18 07:27 47.06786 15.12486 38019 ft 504 kts 89°
2026-02-18 07:27 47.06184 15.22722 38030 ft 504 kts 89°
2026-02-18 07:28 47.05572 15.32951 38039 ft 502 kts 90°
2026-02-18 07:28 47.04952 15.43155 38031 ft 503 kts 90°
2026-02-18 07:29 47.04323 15.53363 38044 ft 502 kts 90°
2026-02-18 07:29 47.03672 15.63563 38047 ft 503 kts 90°
2026-02-18 07:30 47.03020 15.73759 38047 ft 503 kts 90°
2026-02-18 07:30 47.02369 15.83955 38045 ft 502 kts 90°
2026-02-18 07:31 47.01357 15.99215 38038 ft 501 kts 90°
2026-02-18 07:31 47.00671 16.09364 38052 ft 500 kts 91°
2026-02-18 07:32 47.00210 16.19464 38050 ft 492 kts 82°
2026-02-18 07:32 47.01381 16.29142 38050 ft 476 kts 64°
2026-02-18 07:33 47.03557 16.38265 38047 ft 474 kts 64°
2026-02-18 07:33 47.05704 16.47404 38052 ft 474 kts 64°
2026-02-18 07:34 47.07830 16.56516 38049 ft 474 kts 64°
2026-02-18 07:34 47.09968 16.65669 38039 ft 474 kts 65°
2026-02-18 07:35 47.12099 16.74814 38044 ft 473 kts 65°
2026-02-18 07:35 47.14223 16.83960 38049 ft 474 kts 65°
2026-02-18 07:36 47.16338 16.93131 37904 ft 474 kts 65°
2026-02-18 07:36 47.18437 17.02272 37407 ft 470 kts 65°
2026-02-18 07:37 47.19479 17.06829 37149 ft 469 kts 65°
2026-02-18 07:37 47.20518 17.11376 36894 ft 469 kts 65°
2026-02-18 07:37 47.21559 17.15931 36327 ft 470 kts 65°
2026-02-18 07:37 47.22604 17.20502 35470 ft 473 kts 65°
2026-02-18 07:38 47.23650 17.25091 34596 ft 475 kts 65°
2026-02-18 07:38 47.24684 17.29662 33813 ft 476 kts 66°
2026-02-18 07:38 47.25720 17.34257 33301 ft 470 kts 65°
2026-02-18 07:38 47.26787 17.38775 32702 ft 465 kts 64°
2026-02-18 07:39 47.27894 17.43224 32132 ft 459 kts 63°
2026-02-18 07:39 47.29014 17.47599 31555 ft 455 kts 63°
2026-02-18 07:39 47.30131 17.51927 31000 ft 451 kts 63°
2026-02-18 07:39 47.31233 17.56227 30439 ft 447 kts 63°
2026-02-18 07:40 47.32316 17.60506 29885 ft 443 kts 63°
2026-02-18 07:40 47.33373 17.64740 29347 ft 439 kts 64°
2026-02-18 07:40 47.35440 17.73140 28265 ft 428 kts 64°
2026-02-18 07:41 47.36120 17.75916 27926 ft 420 kts 64°
2026-02-18 07:41 47.37091 17.79877 27434 ft 415 kts 65°
2026-02-18 07:41 47.37957 17.83931 26940 ft 416 kts 73°
2026-02-18 07:41 47.38381 17.88166 26454 ft 418 kts 83°
2026-02-18 07:42 47.38366 17.92451 25970 ft 417 kts 88°
2026-02-18 07:42 47.38274 17.96702 25500 ft 413 kts 88°
2026-02-18 07:42 47.38183 18.00926 25027 ft 410 kts 88°
2026-02-18 07:42 47.38093 18.05105 24561 ft 406 kts 89°
2026-02-18 07:43 47.38002 18.09268 24101 ft 403 kts 90°
2026-02-18 07:43 47.37912 18.13382 23616 ft 399 kts 90°
2026-02-18 07:43 47.37817 18.17468 23148 ft 397 kts 90°
2026-02-18 07:43 47.37720 18.21516 22668 ft 395 kts 90°
2026-02-18 07:44 47.37513 18.25551 22182 ft 394 kts 98°
2026-02-18 07:44 47.36838 18.29464 21709 ft 392 kts 109°
2026-02-18 07:44 47.34354 18.36425 20764 ft 379 kts 121°
2026-02-18 07:45 47.32997 18.39741 20306 ft 377 kts 121°
2026-02-18 07:45 47.31647 18.43049 19840 ft 376 kts 121°
2026-02-18 07:45 47.30302 18.46345 19373 ft 373 kts 121°
2026-02-18 07:45 47.28967 18.49615 18916 ft 372 kts 121°
2026-02-18 07:46 47.27637 18.52864 18471 ft 370 kts 121°
2026-02-18 07:46 47.26311 18.56095 17996 ft 368 kts 121°
2026-02-18 07:46 47.25002 18.59280 17562 ft 366 kts 121°
2026-02-18 07:46 47.23683 18.62482 17117 ft 365 kts 121°
2026-02-18 07:47 47.22369 18.65662 16678 ft 363 kts 121°
2026-02-18 07:47 47.21068 18.68811 16227 ft 357 kts 121°
2026-02-18 07:47 47.19897 18.72013 15813 ft 355 kts 111°
2026-02-18 07:47 47.19180 18.75451 15398 ft 351 kts 98°
2026-02-18 07:48 47.18958 18.79007 14986 ft 347 kts 86°
2026-02-18 07:48 47.19005 18.82540 14574 ft 345 kts 86°
2026-02-18 07:48 47.19074 18.89547 13736 ft 341 kts 86°
2026-02-18 07:49 47.19100 18.93018 13319 ft 339 kts 86°
2026-02-18 07:49 47.19138 18.96443 13029 ft 325 kts 83°
2026-02-18 07:49 47.19541 18.99609 12646 ft 308 kts 67°
2026-02-18 07:49 47.20442 19.02402 12375 ft 298 kts 52°
2026-02-18 07:50 47.21723 19.04741 12062 ft 291 kts 39°
2026-02-18 07:50 47.23226 19.06747 11688 ft 291 kts 38°
2026-02-18 07:50 47.24721 19.08729 11128 ft 288 kts 38°
2026-02-18 07:50 47.26197 19.10688 10609 ft 283 kts 38°
2026-02-18 07:51 47.27649 19.12628 10127 ft 281 kts 38°
2026-02-18 07:51 47.29094 19.14550 9702 ft 282 kts 38°
2026-02-18 07:51 47.30549 19.16511 9360 ft 281 kts 39°
2026-02-18 07:51 47.31904 19.18537 9239 ft 276 kts 52°
2026-02-18 07:52 47.32585 19.21136 8993 ft 274 kts 82°
2026-02-18 07:52 47.32261 19.23867 8676 ft 276 kts 114°
2026-02-18 07:52 47.29757 19.28193 7803 ft 279 kts 133°
2026-02-18 07:53 47.28456 19.30274 7228 ft 274 kts 131°
2026-02-18 07:53 47.27184 19.32339 6662 ft 269 kts 131°
2026-02-18 07:53 47.25950 19.34344 6258 ft 261 kts 131°
2026-02-18 07:53 47.24761 19.36310 5964 ft 259 kts 126°
2026-02-18 07:54 47.23996 19.38649 5620 ft 253 kts 99°
2026-02-18 07:54 47.23993 19.41177 5283 ft 245 kts 73°
2026-02-18 07:54 47.24671 19.43447 4784 ft 244 kts 52°
2026-02-18 07:54 47.25789 19.45234 4283 ft 234 kts 34°
2026-02-18 07:55 47.27169 19.46385 3934 ft 219 kts 16°
2026-02-18 07:55 47.28579 19.46852 3794 ft 199 kts
2026-02-18 07:55 47.29897 19.46777 3672 ft 183 kts 348°
2026-02-18 07:55 47.31085 19.46291 3482 ft 172 kts 336°
2026-02-18 07:56 47.32093 19.45494 3302 ft 159 kts 325°
2026-02-18 07:56 47.32913 19.44470 3115 ft 151 kts 314°
2026-02-18 07:56 47.34266 19.42303 2740 ft 137 kts 313°
2026-02-18 07:57 47.34900 19.41286 2561 ft 133 kts 312°
2026-02-18 07:57 47.35519 19.40293 2391 ft 131 kts 313°
2026-02-18 07:57 47.36133 19.39306 2217 ft 130 kts 312°
2026-02-18 07:57 47.36741 19.38330 2069 ft 128 kts 312°
2026-02-18 07:58 47.37347 19.37354 1882 ft 128 kts 312°
2026-02-18 07:58 47.37950 19.36386 1707 ft 128 kts 311°
2026-02-18 07:58 47.38547 19.35424 1535 ft 127 kts 311°
2026-02-18 07:58 47.39146 19.34461 1367 ft 127 kts 311°
2026-02-18 07:59 47.39744 19.33499 1205 ft 127 kts 311°
2026-02-18 07:59 47.40340 19.32545 1026 ft 126 kts 311°
2026-02-18 07:59 47.40935 19.31594 901 ft 126 kts 311°
2026-02-18 07:59 47.41526 19.30632 773 ft 126 kts 310°
2026-02-18 08:00 47.42116 19.29676 604 ft 125 kts 311°
2026-02-18 08:00 47.42693 19.28743 494 ft 115 kts 311°
2026-02-18 08:00 47.43269 19.27807 490 ft 32 kts 311°
2026-02-18 08:01 47.43348 19.27539 488 ft 26 kts 283°
2026-02-18 08:01 47.43385 19.27294 487 ft 24 kts 282°
2026-02-18 08:01 47.43419 19.27070 483 ft 16 kts 284°
2026-02-18 08:01 47.43475 19.26920 485 ft 18 kts 312°
2026-02-18 08:02 47.43567 19.26772 485 ft 21 kts 311°
2026-02-18 08:02 47.43666 19.26610 483 ft 22 kts 314°
2026-02-18 08:02 47.43742 19.26487 480 ft 13 kts 307°
2026-02-18 08:02 47.43713 19.26370 491 ft 14 kts 222°
2026-02-18 08:03 47.43655 19.26299 484 ft 10 kts 220°
2026-02-18 08:03 47.43601 19.26233 480 ft 9 kts 223°
2026-02-18 08:03 47.43558 19.26159 479 ft 10 kts 225°
2026-02-18 08:03 47.43512 19.26096 480 ft 8 kts 222°
2026-02-18 08:04 47.43474 19.26055 486 ft 6 kts 193°
2026-02-18 08:04 47.43444 19.26074 479 ft 4 kts 134°
2026-02-18 08:04 47.43421 19.26118 480 ft 3 kts 124°
2026-02-18 08:05 47.43419 19.26122 481 ft 0 kts 124°